Location: Mauries
(43.6188°N, 0.3322°W)
Time: 19:57:28
(UTC+00:00)

NOAA 12 - Pass Details

Date: 14 January 2026
Orbit: 792 x 813 km, 98.6° (Epoch: 11 February)

Event Time Altitude Azimuth Distance (km) Brightness Sun altitude
Rises 05:06:01 0° 14° (NNE) 3,303 7.4 -25.9°
Reaches altitude 10° 05:08:22 10° 16° (NNE) 2,369 6.6 -25.5°
Maximum altitude 05:13:36 80° 104° (ESE) 810 4.1 -24.6°
Drops below altitude 10° 05:18:49 10° 191° (S) 2,355 6.5 -23.6°
Sets 05:21:08 0° 193° (SSW) 3,282 7.2 -23.2°
